Voltar ao catálogo

COSMOS 886 DEB

AtivoLEO
NORAD 9652·DEBRIS·🇷🇺 Russia

Lançado Dec 27, 1976 de Baikonur Cosmodrome

Loading…

Próximas Passagens (próximas 24 horas)

TLE

AtualizadoSource: Space-Track

Época: Sep 14, 2026, 18:28 UTC

1 09652U 76126J   26257.76962071  .00000811  00000-0  44786-3 0  9996
2 09652  65.8277 275.9923 0896727 295.9725  55.1605 12.96796103320487

Acompanhe COSMOS 886 DEB em tempo real com AllMySat

Download on the App Store